Location: Marsån
(66.4167°N, 22.2833°E)
Time: 11:31:55
(UTC+00:00)

Meteor 2-5 Rocket - Pass Details

Date: 24 February 2024
Orbit: 833 x 911 km, 81.2° (Epoch: 15 April)

Event Time Altitude Azimuth Distance (km) Brightness Sun altitude
Rises 21:39:50 0° 333° (NNW) 3,434 8.0 -31.9°
Reaches altitude 10° 21:42:22 10° 339° (NNW) 2,486 7.0 -32.0°
Enters shadow 21:47:02 47° 26° (NNE) 1,109 4.4 -32.1°
